CAPE
662 790 835 869 895 940 994 1072 1257 1503 1613 1604 1729 1875 1880 2047 2390 2419 2533 2439 1441 1632 1269 1076 1166 828 645 266 5 10 27 51 16 0 2 0 0 0 0 0 0 0 0
689 793 925 1067 1137 1100 1162 1258 1494 1634 1941 1850 1878 2012 2046 1979 2344 1649 978 1566 1259 1574 974 1126 1141 765 243 202 13 43 50 16 0 0 0 0 0 0 0 0 0 0 0
881 859 951 1040 1143 1225 1367 1574 1737 1836 1891 2069 2034 1972 2096 2088 1228 0 302 1 880 651 1471 1151 998 375 480 140 53 19 0 0 0 0 0 0 0 0 0 0 0 0 0
1003 962 912 990 1089 1226 1501 1673 1826 2002 1933 2080 2156 2253 2640 2006 872 189 79 107 638 1309 1164 1005 805 670 295 31 0 0 0 0 0 0 0 0 0 0 0 0 0 0 0
873 959 993 1207 1344 1451 1639 1806 1956 2076 2164 2244 2162 2354 2530 2056 1661 617 205 736 1202 1183 948 710 367 27 0 0 0 0 0 0 0 0 0 0 0 0 0 0 0 0 0
708 768 1088 1219 1339 1449 1551 1691 1944 2165 2390 2457 2509 2620 2298 2145 1460 994 1289 1295 1222 731 73 0 0 0 0 0 0 0 0 0 0 0 0 0 0 0 0 0 0 0 1
522 741 957 1116 1257 1443 1711 1813 1990 2254 2623 2723 2752 2263 2228 1750 1189 985 1122 1273 584 239 0 0 0 0 0 0 0 0 0 0 0 0 0 0 0 0 0 0 0 0 3
418 615 844 1021 1132 1414 1674 1750 2053 2525 2719 2495 2120 2186 1993 1211 613 596 717 572 295 8 0 0 0 0 0 0 0 0 0 0 0 0 0 0 0 0 0 0 0 1 1
416 476 649 840 980 1335 1722 2032 2441 2688 2329 2117 2044 1903 1307 739 477 410 633 217 4 0 0 0 0 0 0 0 0 0 0 0 0 0 0 0 0 0 0 0 0 2 3
415 501 754 926 1149 1627 2172 2178 2666 2170 2095 1800 1636 1254 754 629 139 163 42 0 0 0 0 0 0 0 0 0 0 0 0 0 0 0 0 0 0 0 0 0 1 3 3
551 902 1186 1515 2012 2544 2499 2262 1934 1769 1382 1171 938 803 628 225 0 0 0 0 0 0 0 0 0 0 0 0 0 0 0 0 0 0 0 0 0 0 0 0 1 3 3
1793 1747 2004 2319 2268 2216 2111 1642 1351 1268 1172 711 431 28 0 0 0 0 0 0 0 0 0 0 0 0 0 0 0 0 0 0 0 0 0 0 0 0 0 0 0 2 6
2042 2171 2116 2132 2171 1924 1689 1327 1160 937 738 311 134 0 0 0 0 0 0 0 0 0 0 0 0 0 0 0 0 0 0 0 0 0 0 0 0 0 0 0 0 0 0
1962 2004 1996 1888 1692 1403 1196 1047 1106 949 425 158 1 0 0 0 0 0 0 0 0 0 0 0 0 0 0 0 0 0 0 0 0 0 0 0 0 0 0 0 0 0 0
1663 1615 1367 1070 1001 604 136 431 778 569 524 429 60 0 0 0 0 0 0 0 0 0 0 0 0 0 0 0 0 0 0 0 0 0 0 0 0 0 0 0 0 0 0
1501 1292 1110 1015 695 499 459 198 0 0 0 0 0 0 0 0 0 0 0 0 0 0 0 0 0 0 0 0 0 0 0 0 0 0 0 0 0 0 0 0 0 0 0
1524 1121 868 914 858 905 830 746 308 0 0 0 0 0 0 0 0 0 0 0 0 0 0 0 0 0 0 0 0 0 0 0 0 0 0 0 0 0 0 0 0 0 0
1255 1085 1265 1072 885 964 1058 637 342 255 10 0 0 0 0 0 0 0 0 0 0 0 0 0 0 0 0 0 0 0 0 0 0 0 0 0 0 0 0 0 0 0 0
1135 1112 991 841 997 953 650 537 487 244 2 0 0 0 0 0 0 0 0 0 0 0 0 0 0 0 0 0 0 0 0 0 0 0 0 0 0 0 0 0 0 0 0
1067 852 929 734 405 410 276 137 93 4 2 2 0 0 0 0 0 0 0 0 0 0 0 0 0 0 0 0 0 0 0 0 0 0 0 0 0 0 0 0 0 0 0
764 330 260 233 206 92 55 33 0 0 1 1 0 0 0 0 0 0 0 0 0 0 0 0 0 0 0 0 0 0 0 0 0 0 0 0 0 0 0 0 0 0 0
457 209 187 142 43 0 0 0 0 0 0 0 0 0 0 0 0 0 0 0 0 0 0 0 0 0 0 0 0 0 0 0 0 0 0 0 0 0 0 0 0 0 0
549 396 185 15 0 0 0 0 0 0 0 0 0 0 0 0 0 0 0 0 0 0 0 0 0 0 0 0 0 0 0 0 0 0 0 0 0 0 0 0 0 0 0
611 412 188 36 0 0 0 0 0 0 0 0 0 0 0 0 0 0 0 0 0 0 0 0 0 0 0 0 0 0 0 0 0 0 0 0 0 0 0 0 0 0 0
720 332 63 0 0 0 0 0 0 0 0 0 0 0 0 0 0 0 0 0 0 0 0 0 0 0 0 0 0 0 0 0 0 0 0 0 0 0 0 0 0 0 0
344 52 0 0 0 0 0 0 0 0 0 0 0 0 0 0 0 0 0 0 0 0 0 0 0 0 0 0 0 0 0 0 0 0 0 0 0 0 0 0 0 0 0
CIN
-417 -404 -416 -407 -416 -417 -400 -382 -368 -333 -276 -249 -196 -143 -118 -70 -72 -49 -57 -51 -48 -57 -53 -44 -2 -21 -24 -54 -43 -48 -14 -2 0 0 -2 0 0 0 0 0 0 0 0
-470 -463 -451 -429 -399 -412 -408 -384 -388 -379 -295 -274 -227 -166 -104 -77 -25 -47 -27 0 -1 -24 -62 -43 -1 -11 -67 -25 -14 -16 -8 -12 0 0 0 0 0 0 0 0 0 0 0
-515 -513 -509 -486 -470 -447 -437 -424 -415 -403 -347 -239 -224 -193 -109 -35 -85 0 -241 -48 -12 -66 -16 -21 -1 -52 -9 -12 -73 -22 0 0 -1 0 0 0 0 0 0 0 0 0 0
-540 -523 -493 -480 -491 -459 -473 -466 -455 -397 -332 -246 -215 -156 -31 -71 -214 -329 -472 -439 -109 -9 -45 -10 -7 -4 -14 -45 0 0 0 0 0 0 0 0 0 0 0 0 0 0 0
-514 -501 -501 -538 -551 -549 -514 -472 -430 -374 -292 -219 -194 -131 -75 -74 -104 -290 -374 -129 -8 -31 -34 -16 -60 -14 0 0 0 0 0 0 0 0 0 0 0 0 0 0 0 0 0
-494 -483 -589 -579 -587 -582 -527 -479 -411 -334 -224 -146 -106 -82 -145 -94 -144 -199 -103 -38 -8 -36 -193 0 0 0 0 0 0 0 0 0 0 0 0 0 0 0 0 0 0 0 0
-505 -547 -617 -622 -593 -570 -533 -486 -416 -309 -180 -108 -85 -131 -131 -177 -241 -185 -117 -10 -61 -126 0 0 0 0 0 0 0 0 0 0 0 0 0 0 0 0 0 0 0 0 0
-522 -592 -671 -669 -633 -594 -551 -494 -387 -240 -155 -161 -173 -130 -149 -261 -320 -230 -128 -114 -132 -70 0 0 0 0 0 0 0 0 0 0 0 0 0 0 0 0 0 0 0 0 0
-545 -624 -675 -678 -613 -579 -499 -414 -294 -207 -219 -203 -166 -152 -233 -335 -312 -276 -129 -207 -27 0 0 0 0 0 0 0 0 0 0 0 0 0 0 0 0 0 0 0 0 0 0
-566 -658 -727 -641 -594 -518 -409 -364 -229 -265 -224 -220 -204 -251 -320 -318 -421 -338 -323 0 0 0 0 0 0 0 0 0 0 0 0 0 0 0 0 0 0 0 0 0 0 0 0
-738 -746 -646 -609 -502 -360 -313 -294 -287 -272 -317 -313 -330 -294 -279 -377 0 0 0 0 0 0 0 0 0 0 0 0 0 0 0 0 0 0 0 0 0 0 0 0 0 0 0
-651 -588 -558 -455 -407 -354 -318 -343 -353 -318 -307 -392 -436 -389 0 0 0 0 0 0 0 0 0 0 0 0 0 0 0 0 0 0 0 0 0 0 0 0 0 0 0 -1 0
-495 -485 -485 -422 -363 -341 -348 -368 -352 -359 -369 -462 -495 0 0 0 0 0 0 0 0 0 0 0 0 0 0 0 0 0 0 0 0 0 0 0 0 0 0 0 0 0 0
-441 -452 -422 -392 -371 -372 -395 -373 -310 -323 -406 -467 -71 0 0 0 0 0 0 0 0 0 0 0 0 0 0 0 0 0 0 0 0 0 0 0 0 0 0 0 0 0 0
-471 -454 -457 -462 -441 -527 -512 -228 -346 -372 -347 -344 -459 0 0 0 0 0 0 0 0 0 0 0 0 0 0 0 0 0 0 0 0 0 0 0 0 0 0 0 0 0 0
-444 -444 -442 -414 -476 -518 -504 -622 0 0 0 0 0 0 0 0 0 0 0 0 0 0 0 0 0 0 0 0 0 0 0 0 0 0 0 0 0 0 0 0 0 0 0
-385 -422 -439 -402 -399 -375 -371 -360 -448 0 0 0 0 0 0 0 0 0 0 0 0 0 0 0 0 0 0 0 0 0 0 0 0 0 0 0 0 0 0 0 0 0 0
-366 -381 -306 -327 -378 -335 -268 -331 -369 -328 -184 0 0 0 0 0 0 0 0 0 0 0 0 0 0 0 0 0 0 0 0 0 0 0 0 0 0 0 0 0 0 0 0
-347 -320 -340 -363 -294 -279 -323 -297 -249 -259 -50 0 0 0 0 0 0 0 0 0 0 0 0 0 0 0 0 0 0 0 0 0 0 0 0 0 0 0 0 0 0 0 0
-339 -382 -332 -350 -417 -364 -360 -369 -344 -41 0 0 0 0 0 0 0 0 0 0 0 0 0 0 0 0 0 0 0 0 0 0 0 0 0 0 0 0 0 0 0 0 0
-406 -496 -481 -439 -409 -421 -404 -382 0 0 0 0 0 0 0 0 0 0 0 0 0 0 0 0 0 0 0 0 0 0 0 0 0 0 0 0 0 0 0 0 0 0 0
-447 -504 -455 -429 -452 0 0 0 0 0 0 0 0 0 0 0 0 0 0 0 0 0 0 0 0 0 0 0 0 0 0 0 0 0 0 0 0 0 0 0 0 0 0
-370 -379 -426 -515 0 0 0 0 0 0 0 0 0 0 0 0 0 0 0 0 0 0 0 0 0 0 0 0 0 0 0 0 0 0 0 0 0 0 0 0 0 0 0
-313 -335 -382 -482 0 0 0 0 0 0 0 0 0 0 0 0 0 0 0 0 0 0 0 0 0 0 0 0 0 0 0 0 0 0 0 0 0 0 0 0 0 0 0
-253 -325 -408 0 0 0 0 0 0 0 0 0 0 0 0 0 0 0 0 0 0 0 0 0 0 0 0 0 0 0 0 0 0 0 0 0 0 0 0 0 0 0 0
-279 -372 0 0 0 0 0 0 0 0 0 0 0 0 0 0 0 0 0 0 0 0 0 0 0 0 0 0 0 0 0 0 0 0 0 0 0 0 0 0 0 0 0
Wind_Speed
26 25 24 23 23 20 19 17 15 11 8 6 5 4 5 8 11 16 22 25 19 7 10 14 11 12 15 14 15 15 15 17 22 25 27 28 27 28 29 31 32 33 33
25 24 23 21 20 19 17 15 12 10 7 6 7 7 9 12 17 24 36 17 8 6 11 13 11 12 15 15 16 17 19 21 23 26 28 29 27 28 28 30 32 34 36
22 21 19 18 17 17 15 12 11 9 9 9 9 9 9 10 9 12 9 5 5 3 9 13 12 13 16 17 18 21 23 23 24 26 28 27 28 28 31 30 38 41 41
21 18 17 15 15 14 13 12 11 9 9 10 9 9 9 6 5 14 4 3 4 5 12 13 13 16 17 18 22 24 24 26 26 27 28 28 29 31 32 38 44 46 48
19 17 16 12 12 12 10 9 9 9 10 10 9 9 8 5 5 12 7 6 8 11 14 14 17 19 20 22 23 25 26 27 28 28 27 28 30 35 37 38 41 47 42
17 17 11 5 7 8 6 7 6 6 6 8 7 8 9 9 9 8 10 13 13 13 15 18 19 21 22 24 26 26 26 27 28 27 27 28 29 30 35 37 40 28 36
13 10 4 2 1 1 5 6 5 7 8 7 7 7 8 10 10 10 12 13 14 16 16 19 20 21 22 24 26 26 25 24 24 24 25 26 27 30 31 32 38 19 15
9 5 2 2 2 5 4 9 9 11 9 8 5 6 9 11 12 12 14 15 16 17 18 20 20 21 23 25 26 27 27 25 25 24 24 24 23 26 27 27 23 17 15
5 2 2 2 4 5 7 11 12 12 10 7 7 8 9 11 12 12 14 15 17 19 19 20 20 22 24 25 26 28 27 27 24 24 23 23 24 29 30 26 33 33 25
1 2 3 5 6 7 8 8 10 10 8 8 9 9 10 11 12 12 14 15 17 18 20 20 22 23 24 25 26 27 27 27 26 27 28 29 30 33 31 30 31 43 40
3 4 7 8 9 10 11 11 10 9 9 10 10 11 12 12 13 13 14 15 17 18 19 19 21 22 24 26 26 26 26 23 25 27 28 30 32 32 28 33 34 40 45
5 7 9 9 11 11 11 10 10 9 10 11 11 12 13 14 14 14 15 17 17 18 18 19 20 21 24 25 26 26 26 25 26 28 28 30 31 31 28 30 34 38 42
6 8 9 10 11 10 10 10 10 10 11 11 11 12 12 13 14 14 16 17 18 19 19 19 20 21 23 25 26 27 27 28 28 29 28 29 29 28 27 27 29 33 39
7 9 10 10 10 10 10 10 11 12 12 11 12 12 12 12 13 14 15 17 18 19 19 19 20 22 24 23 24 25 26 27 26 27 26 27 27 28 30 29 30 29 33
7 8 9 9 9 10 10 10 11 11 11 12 11 11 11 11 11 13 14 15 16 17 18 18 19 20 22 22 24 25 25 26 27 27 28 28 29 29 30 30 30 31 34
7 8 8 9 10 11 12 12 12 11 11 12 12 12 11 12 13 14 15 16 17 17 18 19 19 20 21 23 23 23 24 25 26 26 27 27 28 30 30 31 32 33 34
8 8 9 10 12 13 12 12 12 12 13 13 12 12 12 13 14 15 16 17 17 17 18 19 19 19 21 22 23 23 23 24 24 25 26 27 27 28 29 30 31 33 34
9 10 10 11 12 12 12 12 11 11 11 10 13 12 12 13 14 15 16 16 16 17 18 18 18 19 19 20 21 22 22 23 24 25 25 25 26 26 27 28 29 30 32
9 9 10 12 12 12 12 11 10 10 10 10 11 12 12 13 13 14 14 14 15 16 17 18 18 18 19 19 21 21 22 23 23 24 24 24 24 24 25 25 27 29 29
8 11 11 10 10 9 9 9 9 9 9 9 10 10 11 12 11 11 12 13 14 15 16 17 17 18 18 19 20 20 21 22 22 23 23 23 23 23 24 24 24 25 27
7 9 8 8 7 7 7 8 9 9 9 9 9 10 11 11 11 11 12 12 13 15 15 16 16 17 18 18 18 19 19 21 21 22 22 22 21 22 23 23 23 24 25
8 7 7 5 5 6 6 7 8 9 9 9 10 10 11 10 11 11 11 12 13 14 15 15 16 17 17 17 17 18 18 19 20 21 21 21 21 21 22 23 23 23 23
5 5 4 3 4 4 5 6 7 8 9 10 10 10 10 9 10 10 11 12 13 14 15 15 15 16 17 17 17 17 18 18 19 19 20 21 21 21 22 23 23 22 22
3 2 1 1 1 3 4 5 6 7 8 9 8 9 9 9 10 10 10 11 12 13 13 14 14 15 16 16 17 17 18 18 18 19 19 21 22 22 22 23 23 24 25
3 3 3 2 2 1 2 3 4 5 7 7 7 8 9 9 10 9 9 10 11 12 12 12 13 14 15 16 16 17 17 17 17 17 19 20 21 22 22 22 23 23 23
5 5 5 5 4 3 2 1 1 4 5 6 6 7 9 9 9 8 8 9 10 10 10 11 12 13 14 15 15 16 16 16 15 16 17 18 19 20 20 21 21 21 21
Wind_Direction
180 182 185 189 193 196 200 204 207 210 215 229 252 291 290 312 326 336 332 327 322 355 9 9 19 22 19 25 22 25 18 8 356 354 355 354 354 354 355 354 352 347 343
181 183 188 190 194 199 203 208 214 224 237 265 283 299 317 327 340 341 331 309 304 331 358 17 24 25 27 20 25 22 12 4 358 353 356 356 357 357 357 356 355 351 346
179 183 186 192 197 205 210 217 228 245 270 298 304 307 320 340 346 345 290 238 218 337 20 25 26 32 22 20 23 16 8 5 1 357 355 359 359 1 358 0 357 353 351
179 183 192 200 208 215 222 232 239 265 292 305 308 317 334 337 346 347 15 89 54 53 36 33 32 25 21 21 17 11 8 4 3 0 360 1 2 2 1 357 355 358 352
184 190 200 209 218 225 236 250 269 283 304 313 320 333 344 347 342 3 45 55 56 52 40 37 28 25 24 20 16 11 8 7 5 3 5 5 5 1 0 360 0 359 326
183 194 195 209 205 210 228 227 246 263 295 320 331 340 348 355 8 23 49 45 50 52 40 33 31 27 24 20 16 14 14 10 9 10 11 10 9 9 5 5 5 327 327
190 192 193 163 353 173 345 335 336 338 338 338 348 2 7 16 33 49 53 51 50 37 37 30 27 27 24 20 17 17 17 20 21 18 18 16 15 13 12 13 12 347 338
193 200 258 337 19 2 20 349 353 354 353 2 23 34 32 28 46 57 51 41 38 37 31 29 29 28 24 21 18 17 19 22 22 24 23 22 24 23 22 21 21 342 14
196 256 300 0 19 20 12 355 352 355 2 25 42 43 50 51 51 60 47 44 38 32 30 32 33 29 25 23 21 18 21 23 26 28 32 33 31 29 29 35 31 342 343
280 340 359 360 6 8 11 17 7 10 27 38 40 49 56 53 62 59 52 45 38 34 35 35 32 29 28 26 24 23 23 25 27 26 26 30 29 26 37 43 41 357 352
25 26 358 2 2 9 12 12 17 28 44 53 54 52 50 57 63 64 53 43 40 40 39 36 32 33 32 29 29 29 30 37 36 30 28 29 28 33 47 40 43 39 10
35 10 4 7 9 12 19 27 39 55 65 68 62 49 44 52 60 55 45 42 47 44 41 38 39 39 34 31 31 32 34 40 40 34 35 33 34 39 45 45 46 50 39
18 9 6 9 14 25 43 48 53 65 77 74 64 63 58 51 49 48 48 50 47 43 43 43 48 42 37 35 32 32 35 36 38 37 41 40 40 43 49 55 56 55 57
7 7 8 13 22 33 42 53 76 85 83 76 78 75 64 61 54 55 54 50 48 45 48 50 47 41 37 40 41 38 36 36 40 40 46 48 47 49 49 51 53 59 57
10 20 29 35 47 53 41 50 73 70 85 90 86 81 79 67 62 68 63 57 55 53 53 52 47 44 43 45 42 40 38 35 36 33 34 39 42 45 47 51 53 53 50
41 42 50 62 73 72 72 63 31 51 63 70 80 78 61 65 75 71 65 64 66 62 50 49 50 50 48 46 45 45 44 39 39 41 37 37 38 40 43 46 47 49 47
67 72 71 82 89 90 84 82 77 41 42 52 58 60 66 81 77 73 71 71 61 51 47 49 53 54 51 50 50 51 53 48 47 39 36 36 38 39 39 41 44 45 45
72 89 91 96 96 91 88 85 78 76 70 63 32 51 75 81 79 76 78 67 52 46 47 50 55 56 55 53 52 52 52 49 42 37 34 34 35 35 35 39 42 44 44
82 90 93 98 97 92 88 80 69 65 63 59 56 51 65 77 81 83 77 57 49 46 48 55 59 60 57 52 48 48 49 47 44 41 37 36 38 38 38 44 44 42 45
78 97 98 95 90 80 74 64 56 55 60 66 65 72 82 84 83 83 65 57 52 49 50 56 60 60 58 53 49 48 48 47 45 43 41 40 44 43 39 41 41 41 44
97 102 95 90 81 72 59 53 50 54 54 57 64 85 102 95 88 85 73 59 55 52 55 57 60 58 56 56 54 54 54 51 52 53 51 48 46 47 44 42 47 47 49
110 110 102 86 69 55 46 50 51 48 56 56 66 88 100 83 88 85 72 59 56 53 53 55 58 59 59 60 60 59 59 57 60 65 65 63 61 62 57 50 55 55 51
130 127 109 83 67 60 58 52 57 60 63 69 77 94 102 84 91 85 71 63 62 58 55 54 60 61 60 59 62 64 61 62 69 81 80 80 77 77 71 62 62 60 53
158 157 149 112 81 91 85 83 77 77 76 77 80 91 95 94 98 86 71 66 64 59 58 60 59 62 64 63 64 63 64 69 75 78 96 92 96 97 87 79 73 81 90
212 238 235 244 189 150 109 95 89 94 87 82 86 100 98 99 102 88 72 70 66 62 61 60 56 66 68 66 63 63 65 73 73 71 86 82 84 93 95 95 92 83 79
253 247 248 247 222 233 219 169 120 117 94 99 91 102 112 112 107 95 84 77 70 60 61 58 65 72 74 70 66 64 70 71 67 72 79 79 79 83 83 79 76 73 70